Stündliche Wetter Abbeville

Heute, 8 März, Montag

Zeit Temperatur Niederschläge Wind Luftdruck Luftfeuchtigkeit
00:00 -2°C° 0 mm 2 m/S 765 mmHg 85%
01:00 -2°C° 0 mm 2 m/S 765 mmHg 85%
02:00 -2°C° 0 mm 2 m/S 765 mmHg 85%
03:00 -2°C° 0 mm 2 m/S 765 mmHg 85%
04:00 -2°C° 0 mm 2 m/S 765 mmHg 85%
05:00 -2°C° 0 mm 2 m/S 765 mmHg 85%
06:00 0°C° 0 mm 1 m/S 765 mmHg 84%
07:00 +1°C° 0 mm 2 m/S 765 mmHg 79%
08:00 +2°C° 0 mm 2 m/S 765 mmHg 73%
09:00 +3°C° 0 mm 2 m/S 766 mmHg 67%
10:00 +4°C° 0 mm 2 m/S 765 mmHg 64%
11:00 +5°C° 0 mm 2 m/S 765 mmHg 60%
12:00 +6°C° 0 mm 2 m/S 765 mmHg 57%
13:00 +7°C° 0 mm 2 m/S 765 mmHg 57%
14:00 +7°C° 0 mm 2 m/S 764 mmHg 58%
15:00 +7°C° 0 mm 2 m/S 764 mmHg 58%
16:00 +6°C° 0 mm 2 m/S 764 mmHg 65%
17:00 +4°C° 0 mm 2 m/S 764 mmHg 72%
18:00 +3°C° 0 mm 2 m/S 764 mmHg 79%
19:00 +4°C° 0 mm 1 m/S 764 mmHg 80%
20:00 +4°C° 0 mm 1 m/S 764 mmHg 81%
21:00 +3°C° 0 mm 0 m/S 764 mmHg 81%
22:00 +2°C° 0 mm 0 m/S 764 mmHg 82%
23:00 +2°C° 0 mm 0 m/S 764 mmHg 83%

Morgen, 9 März, Dienstag

Zeit Temperatur Niederschläge Wind Luftdruck Luftfeuchtigkeit
00:00 +2°C° 0 mm 0 m/S 764 mmHg 83%
01:00 +3°C° 0 mm 1 m/S 764 mmHg 83%
02:00 +4°C° 0 mm 1 m/S 763 mmHg 82%
03:00 +3°C° 0 mm 2 m/S 763 mmHg 82%
04:00 +3°C° 0 mm 2 m/S 763 mmHg 83%
05:00 +3°C° 0 mm 2 m/S 763 mmHg 84%
06:00 +4°C° 0 mm 2 m/S 763 mmHg 85%
07:00 +4°C° 0 mm 3 m/S 763 mmHg 84%
08:00 +5°C° 0 mm 3 m/S 763 mmHg 82%
09:00 +6°C° 0 mm 4 m/S 763 mmHg 81%
10:00 +7°C° 0 mm 4 m/S 763 mmHg 77%
11:00 +8°C° 0 mm 5 m/S 763 mmHg 73%
12:00 +8°C° 0 mm 5 m/S 763 mmHg 69%
13:00 +8°C° 0 mm 5 m/S 763 mmHg 69%
14:00 +8°C° 0 mm 5 m/S 763 mmHg 69%
15:00 +8°C° 0 mm 5 m/S 763 mmHg 69%
16:00 +6°C° 0 mm 4 m/S 762 mmHg 75%
17:00 +5°C° 0 mm 4 m/S 762 mmHg 82%
18:00 +4°C° 0 mm 3 m/S 762 mmHg 89%
19:00 +3°C° 0 mm 3 m/S 763 mmHg 90%
20:00 +3°C° 0 mm 3 m/S 763 mmHg 92%
21:00 +3°C° 0 mm 3 m/S 763 mmHg 93%
22:00 +3°C° 0 mm 3 m/S 763 mmHg 93%
23:00 +2°C° 0 mm 3 m/S 763 mmHg 94%

übermorgen, 10 März, Mittwoch

Zeit Temperatur Niederschläge Wind Luftdruck Luftfeuchtigkeit
00:00 +2°C° 0 mm 3 m/S 762 mmHg 94%
01:00 +2°C° 0 mm 3 m/S 762 mmHg 93%
02:00 +2°C° 0 mm 3 m/S 762 mmHg 93%
03:00 +2°C° 0 mm 3 m/S 762 mmHg 93%
04:00 +1°C° 0 mm 4 m/S 762 mmHg 91%
05:00 +1°C° 0 mm 4 m/S 762 mmHg 89%
06:00 +1°C° 0 mm 4 m/S 762 mmHg 88%
07:00 +2°C° 0 mm 5 m/S 762 mmHg 83%
08:00 +3°C° 0 mm 6 m/S 762 mmHg 79%
09:00 +4°C° 0 mm 7 m/S 762 mmHg 74%
10:00 +5°C° 0 mm 7 m/S 761 mmHg 71%
11:00 +6°C° 0 mm 7 m/S 761 mmHg 68%
12:00 +8°C° 0 mm 7 m/S 761 mmHg 65%
13:00 +6°C° 0 mm 7 m/S 760 mmHg 67%
14:00 +7°C° 0 mm 6 m/S 760 mmHg 68%
15:00 +5°C° 0 mm 6 m/S 759 mmHg 70%
16:00 +5°C° 0.2 mm 6 m/S 758 mmHg 74%
17:00 +5°C° 0.2 mm 7 m/S 758 mmHg 78%
18:00 +5°C° 0.2 mm 7 m/S 757 mmHg 82%
19:00 +5°C° 0.6 mm 8 m/S 757 mmHg 84%
20:00 +5°C° 0.6 mm 8 m/S 756 mmHg 87%
21:00 +5°C° 0.6 mm 9 m/S 756 mmHg 89%
22:00 +6°C° 0.1 mm 9 m/S 755 mmHg 89%
23:00 +6°C° 0.1 mm 10 m/S 754 mmHg 88%

11 März, Donnerstag

Zeit Temperatur Niederschläge Wind Luftdruck Luftfeuchtigkeit
00:00 +6°C° 0.1 mm 10 m/S 753 mmHg 88%
01:00 +7°C° 0 mm 10 m/S 753 mmHg 87%
02:00 +8°C° 0 mm 10 m/S 752 mmHg 87%
03:00 +9°C° 0 mm 10 m/S 751 mmHg 87%
04:00 +9°C° 0.6 mm 10 m/S 751 mmHg 88%
05:00 +9°C° 0.6 mm 10 m/S 750 mmHg 89%
06:00 +11°C° 0.6 mm 10 m/S 750 mmHg 90%
07:00 +9°C° 1.1 mm 11 m/S 750 mmHg 85%
08:00 +9°C° 1.1 mm 11 m/S 750 mmHg 79%
09:00 +8°C° 1.1 mm 11 m/S 750 mmHg 74%
10:00 +9°C° 0 mm 11 m/S 751 mmHg 71%
11:00 +9°C° 0 mm 12 m/S 751 mmHg 69%
12:00 +9°C° 0 mm 13 m/S 751 mmHg 66%
13:00 +9°C° 0.2 mm 13 m/S 751 mmHg 66%
14:00 +8°C° 0.2 mm 12 m/S 751 mmHg 67%
15:00 +8°C° 0.2 mm 12 m/S 752 mmHg 67%
16:00 +7°C° 0.1 mm 11 m/S 752 mmHg 68%
17:00 +6°C° 0.1 mm 11 m/S 753 mmHg 69%
18:00 +5°C° 0.1 mm 10 m/S 753 mmHg 71%
19:00 +5°C° 0 mm 9 m/S 754 mmHg 72%
20:00 +5°C° 0 mm 9 m/S 755 mmHg 73%
21:00 +5°C° 0 mm 9 m/S 755 mmHg 73%
22:00 +4°C° 0 mm 8 m/S 756 mmHg 75%
23:00 +4°C° 0 mm 7 m/S 756 mmHg 76%

12 März, Freitag

Zeit Temperatur Niederschläge Wind Luftdruck Luftfeuchtigkeit
00:00 +4°C° 0 mm 7 m/S 757 mmHg 77%
01:00 +4°C° 0 mm 7 m/S 757 mmHg 79%
02:00 +3°C° 0 mm 7 m/S 757 mmHg 81%
03:00 +3°C° 0 mm 7 m/S 757 mmHg 83%
04:00 +3°C° 0.1 mm 7 m/S 757 mmHg 83%
05:00 +3°C° 0.1 mm 7 m/S 757 mmHg 83%
06:00 +3°C° 0.1 mm 7 m/S 757 mmHg 83%
07:00 +4°C° 0 mm 8 m/S 757 mmHg 80%
08:00 +3°C° 0 mm 9 m/S 756 mmHg 77%
09:00 +5°C° 0 mm 9 m/S 756 mmHg 75%
10:00 +6°C° 0.1 mm 10 m/S 756 mmHg 74%
11:00 +6°C° 0.1 mm 10 m/S 756 mmHg 73%
12:00 +7°C° 0.1 mm 10 m/S 755 mmHg 73%
13:00 +6°C° 0.9 mm 10 m/S 755 mmHg 76%
14:00 +6°C° 0.9 mm 9 m/S 755 mmHg 80%
15:00 +5°C° 0.9 mm 8 m/S 755 mmHg 83%
16:00 +5°C° 0.1 mm 8 m/S 755 mmHg 82%
17:00 +5°C° 0.1 mm 7 m/S 755 mmHg 81%
18:00 +4°C° 0.1 mm 7 m/S 755 mmHg 81%
19:00 +4°C° 0 mm 6 m/S 756 mmHg 82%
20:00 +4°C° 0 mm 6 m/S 756 mmHg 83%
21:00 +4°C° 0 mm 6 m/S 756 mmHg 84%
22:00 +4°C° 0 mm 7 m/S 756 mmHg 84%
23:00 +4°C° 0 mm 7 m/S 756 mmHg 85%

13 März, Samstag

Zeit Temperatur Niederschläge Wind Luftdruck Luftfeuchtigkeit
00:00 +4°C° 0 mm 7 m/S 756 mmHg 85%
01:00 +4°C° 0.1 mm 8 m/S 756 mmHg 86%
02:00 +4°C° 0.1 mm 8 m/S 756 mmHg 87%
03:00 +4°C° 0.1 mm 8 m/S 755 mmHg 88%
04:00 +4°C° 0.1 mm 8 m/S 755 mmHg 88%
05:00 +5°C° 0.1 mm 8 m/S 754 mmHg 88%
06:00 +5°C° 0.1 mm 9 m/S 754 mmHg 88%
07:00 +5°C° 0.5 mm 9 m/S 754 mmHg 88%
08:00 +6°C° 0.5 mm 10 m/S 753 mmHg 88%
09:00 +6°C° 0.5 mm 10 m/S 753 mmHg 89%
10:00 +6°C° 0.4 mm 11 m/S 753 mmHg 87%
11:00 +6°C° 0.4 mm 11 m/S 753 mmHg 86%
12:00 +7°C° 0.4 mm 11 m/S 752 mmHg 84%
13:00 +7°C° 0.3 mm 11 m/S 752 mmHg 82%
14:00 +7°C° 0.3 mm 11 m/S 752 mmHg 80%
15:00 +8°C° 0.3 mm 11 m/S 752 mmHg 79%
16:00 +7°C° 0.1 mm 11 m/S 752 mmHg 78%
17:00 +7°C° 0.1 mm 10 m/S 752 mmHg 78%
18:00 +6°C° 0.1 mm 9 m/S 751 mmHg 78%
19:00 +5°C° 0.5 mm 10 m/S 752 mmHg 81%
20:00 +5°C° 0.5 mm 10 m/S 752 mmHg 84%
21:00 +3°C° 0.5 mm 11 m/S 752 mmHg 86%
22:00 +3°C° 0.6 mm 10 m/S 752 mmHg 83%
23:00 +2°C° 0.6 mm 9 m/S 752 mmHg 80%
Mehr zeigen

Wir brauchen deine Erlaubnis

Meteoprog und unser Service Anbieter werden persönliche Daten aufbewahren, so wie Cookies, Geräte Bezeichnung oder ähnliche Technologien von deinem Gerät und Prozess, so wie Persönliche Daten Inhalte und Werbungen, genauso wie social Media und den Verkehr zu analysieren.

  • Aufbewahrung und/oder Zugang zu deiner Geräte Informationen.

    Cookies, Geräte Bezeichnung oder andere Informationen, können aufbewahrt oder Zugang zu deinem Gerät erhalten, für den Grund, der oben angegeben wird.

  • Personalisierte Werbung und Inhalte, Messungen, Einblick in das Publikum und Produkt Entwicklung.

    Werbungen und Inhalte können personalisiert werden, basierend auf ein Profil. Mehr Daten können besser personalisierte Werbungen und Inhalte hinzufügen. Werbung und Inhalte können gezeigt und gemessen werden. Einblicke über das Publikum, welche die Werbung gesehen haben und den Inhalt, können abgeleitet werden. So wie Daten können genutzt werden, um es zu verbessern oder die Benutzer Erfahrung zu verbessern das System und die Software.

Wenn du “Ich stimme zu” klickst, erlaubst du uns, die Cookies zu benutzen die Geräte Bezeichnung, den Web oder ähnliche Technologien zu benutzen. Deine Settings, können in deinem Gerät bei deinem Browser geändert werden.

Für den bestimmten Zweck, berechtigten Interessen beruhen darauf, mehr als auf den Inhalt. Du kannst mehr darüber in unseren Privaten und Cookie Politik lesen.